Regional Weather Roundup
Issued by NWS

Home | Current Version | Previous Version | Graphics & Text | Print | Product List | Glossary On
Versions: 1 2 3 4 5 6 7 8 9 10 11 12 13 14 15 16 17 18 19 20 21 22 23 24 25 26 27 28 29 30 31 32 33 34 35 36 37 38 39 40 41 42 43 44 45 46 47 48 49 50
089
ASUS43 KTOP 101108
RWRKS

WEATHER ROUNDUP FOR KANSAS
NATIONAL WEATHER SERVICE GOODLAND KS
500 AM CST WED FEB 10 2016

NOTE:  "FAIR" INDICATES FEW OR NO CLOUDS BELOW 12,000 FEET WITH NO
SIGNIFICANT WEATHER AND/OR OBSTRUCTIONS TO VISIBILITY.

KSZ001>006-013>018-027>032-041>047-101200-
NORTHWEST KANSAS

CITY           SKY/WX    TMP DP  RH WIND       PRES   REMARKS
GOODLAND       CLEAR     35  24  64 W15       30.10S WCI  25
HAYS           CLEAR     30  19  64 W7        30.07F
HILL CITY      CLEAR     32  25  75 CALM      30.05F
RUSSELL        CLEAR     28  24  85 SW10      30.05F WCI  19
$$

KSZ061>065-074>080-084>089-101200-
SOUTHWEST KANSAS

CITY           SKY/WX    TMP DP  RH WIND       PRES   REMARKS
DODGE CITY     CLEAR     34  24  67 W16       30.11F WCI  24
ELKHART          N/A     39  21  48 SW10        N/A  WCI  32
GARDEN CITY    CLEAR     30  24  78 W12       30.12F WCI  20
GREAT BEND     CLEAR     27  18  69 SW8       30.09F
LIBERAL        CLEAR     36  25  64 W12       30.16F WCI  27
PRATT          CLEAR     24  18  76 SW12      30.11F WCI  13
$$

KSZ066>073-081>083-090>101-101200-
SOUTHEAST KANSAS

CITY           SKY/WX    TMP DP  RH WIND       PRES   REMARKS
CHANUTE        CLOUDY    23  14  68 SW7       30.24S
COFFEYVILLE    CLOUDY    23  16  74 S3        30.27S
HUTCHINSON     CLEAR     26  18  71 S9        30.14F
MEDICINE LODGE   N/A     27  19  72 S8        30.16F
NEWTON         CLEAR     23  12  63 S10       30.17F WCI  12
PARSONS        CLOUDY    22  14  71 SW3       30.26F
WICHITA INTL   PTCLDY    25  15  66 S12       30.17F WCI  14
WICHITA JABRA  CLEAR     23  14  68 S9        30.17F
WICHITA MCCONL CLEAR     24  14  66 S9        30.18F
WINFIELD       CLEAR     22  15  75 S7        30.23F
$$

KSZ007>012-019>026-033>040-048>060-102>105-101200-
NORTHEAST KANSAS

CITY           SKY/WX    TMP DP  RH WIND       PRES   REMARKS
CONCORDIA      CLEAR     26  16  65 S8        30.08F
EMPORIA        CLOUDY    26  15  63 S8        30.18F
LAWRENCE       CLOUDY    22  17  81 CALM      30.19F
MANHATTAN      CLOUDY    26  16  65 SW6       30.14F
MARYSVILLE     CLOUDY    28  14  54 S12       30.10R WCI  18
OLATHE IND     CLOUDY    21  14  74 S5        30.18F
OLATHE EXE     CLOUDY    21  14  74 S3        30.17F
SALINA         CLEAR     27  17  66 S7        30.12F
TOPEKA BILLARD CLOUDY    25  14  63 CALM      30.19F
TOPEKA FORBES  CLOUDY    25  16  68 S5        30.17F
$$




USA.gov is the U.S. government's official web portal to all federal, state and local government web resources and services.